Home > Weather > Liezen > Past weeks

Flag for Austria Past Weather in Liezen, Styria, Austria — Yesterday and Last 2 Weeks

Now
81 °F

Warm.


Feels Like: 82 °F
Forecast: 58 / 87 °F
Wind: 3 mph from Northeast

Location: Aigen Im Ennstal

Current Time: Aug 27, 2016 at 7:14:40 PM

Latest Report: Aug 27, 2016 at 6:00 PM


Visibility: N/A

Pressure: 29.97 "Hg (27.80 "Hg at 661m altitude)

Humidity: 57%

Dew Point: 64 °F

Location of LiezenLocation

Past Weather in Liezen — Graph

°F

Liezen Temperature Yesterday

Maximum temperature yesterday: 83 °F (at 5:00 PM)
Minimum temperature yesterday: 52 °F (at 7:00 AM)
Average temperature yesterday: 67 °F

High & Low Weather Summary for the Past Weeks

 TemperatureHumidityPressure
High84 °F (Aug 27, 4:00 PM)97% (Aug 14, 7:00 AM)30.45 "Hg (Aug 14, 7:00 AM)
Low47 °F (Aug 24, 6:00 AM)37% (Aug 14, 5:00 PM)29.75 "Hg (Aug 18, 5:00 PM)
Average63 °F75%30.11 "Hg
* Reported Aug 12 6:00 PM — Aug 27 6:00 PM, Liezen, Weather by CustomWeather, © 2016

Note: Actual official high and low records may vary slightly from our data, if they occured in-between our weather recording intervals... More about our weather records

Advertising

Liezen Weather History for the Previous 24 Hours

Scroll right to see more
 ConditionsComfort  
Time TempWeatherWind HumidityBarometerVisibility
6:00 PM
Sat, Aug 27
81 °FWarm.3 mph57%29.97 "HgN/A
5:00 PM83 °FSunny.3 mph50%29.96 "Hg31 mi
4:00 PM84 °FWarm.3 mph53%29.97 "HgN/A
3:00 PM83 °FWarm.3 mph50%29.99 "HgN/A
2:00 PM81 °FPassing clouds.3 mph54%30.02 "Hg31 mi
1:00 PM78 °FWarm.2 mph59%30.05 "HgN/A
12:00 PM75 °FMild.1 mph64%30.09 "HgN/A
11:00 AM70 °FSunny.N/A69%30.12 "Hg25 mi
10:00 AM66 °FMild.1 mph75%30.16 "HgN/A
9:00 AM60 °FCool.1 mph85%30.19 "HgN/A
8:00 AM56 °FPassing clouds.N/A93%30.22 "Hg16 mi
7:00 AM51 °FFog.N/A94%30.24 "Hg0 mi
5:00 AM53 °FClear.N/A93%30.23 "Hg19 mi
4:00 AM54 °FCool.1 mph94%30.23 "HgN/A
3:00 AM56 °FCool.No wind93%30.21 "HgN/A
2:00 AM57 °FClear.N/A90%30.19 "Hg12 mi
1:00 AM58 °FCool.1 mph91%30.20 "HgN/A
10:00 PM
Fri, Aug 26
68 °FMild.No wind73%30.13 "HgN/A
9:00 PM69 °FMild.2 mph69%30.10 "HgN/A
8:00 PM72 °FClear.3 mph67%30.06 "Hg31 mi
7:00 PM76 °FMild.3 mph60%30.03 "HgN/A
Weather by CustomWeather, © 2016

See weather overviewHow to use our weather pages